Time,TemperatureF,DewpointF,PressureIn,WindDirection,WindDirectionDegrees,WindSpeedMPH,WindSpeedGustMPH,Humidity,HourlyPrecipIn,Conditions,Clouds,dailyrainin,SolarRadiationWatts/m^2,SoftwareType,DateUTC
2013-09-11 09:00:00,69.0,65.0,-100.00,WSW,247,6.0,-999.0,87,-99.99,,,-99.99,133.399994,,2013-09-11 14:00:00,
2013-09-11 09:42:00,69.0,65.0,-100.00,WSW,247,6.0,-999.0,87,-99.99,,,-99.99,133.399994,,2013-09-11 14:42:00,
2013-09-11 09:52:00,69.0,65.0,-100.00,WSW,247,6.0,-999.0,87,-99.99,,,-99.99,133.399994,,2013-09-11 14:52:00,
2013-09-11 10:00:00,69.0,65.0,-100.00,West,270,6.0,-999.0,87,-99.99,,,-99.99,211.119995,,2013-09-11 15:00:00,
2013-09-11 10:43:00,69.0,65.0,-100.00,West,270,6.0,-999.0,87,-99.99,,,-99.99,211.119995,,2013-09-11 15:43:00,
2013-09-11 10:54:00,69.0,65.0,-100.00,West,270,6.0,-999.0,87,-99.99,,,-99.99,211.119995,,2013-09-11 15:54:00,
2013-09-11 11:00:00,70.0,65.0,-100.00,West,270,7.0,-999.0,83,-99.99,,,-99.99,396.720001,,2013-09-11 16:00:00,
2013-09-11 11:43:00,70.0,65.0,-100.00,West,270,7.0,-999.0,83,-99.99,,,-99.99,396.720001,,2013-09-11 16:43:00,
2013-09-11 11:53:00,70.0,65.0,-100.00,West,270,7.0,-999.0,83,-99.99,,,-99.99,396.720001,,2013-09-11 16:53:00,
2013-09-11 12:00:00,72.0,64.0,-100.00,West,270,7.0,-999.0,77,-99.99,,,-99.99,581.159973,,2013-09-11 17:00:00,
2013-09-11 12:43:00,72.0,64.0,-100.00,West,270,7.0,-999.0,77,-99.99,,,-99.99,581.159973,,2013-09-11 17:43:00,
2013-09-11 12:52:00,72.0,64.0,-100.00,West,270,7.0,-999.0,77,-99.99,,,-99.99,581.159973,,2013-09-11 17:52:00,
2013-09-11 13:00:00,75.0,64.0,-100.00,West,270,7.0,-999.0,69,-99.99,,,-99.99,745.880005,,2013-09-11 18:00:00,
2013-09-11 13:42:00,75.0,64.0,-100.00,West,270,7.0,-999.0,69,-99.99,,,-99.99,745.880005,,2013-09-11 18:42:00,
2013-09-11 13:52:00,75.0,64.0,-100.00,West,270,7.0,-999.0,69,-99.99,,,-99.99,745.880005,,2013-09-11 18:52:00,
2013-09-11 14:00:00,76.0,64.0,-100.00,WSW,247,7.0,-999.0,64,-99.99,,,-99.99,725.000000,,2013-09-11 19:00:00,
2013-09-11 14:42:00,76.0,64.0,-100.00,WSW,247,7.0,-999.0,64,-99.99,,,-99.99,725.000000,,2013-09-11 19:42:00,
2013-09-11 14:53:00,76.0,64.0,-100.00,WSW,247,7.0,-999.0,64,-99.99,,,-99.99,725.000000,,2013-09-11 19:53:00,
2013-09-11 15:00:00,78.0,63.0,-100.00,WSW,247,8.0,-999.0,60,-99.99,,,-99.99,657.719971,,2013-09-11 20:00:00,
2013-09-11 15:42:00,78.0,63.0,-100.00,WSW,247,8.0,-999.0,60,-99.99,,,-99.99,657.719971,,2013-09-11 20:42:00,
2013-09-11 15:52:00,78.0,63.0,-100.00,WSW,247,8.0,-999.0,60,-99.99,,,-99.99,657.719971,,2013-09-11 20:52:00,
2013-09-11 16:00:00,79.0,62.0,-100.00,SW,225,9.0,-999.0,57,-99.99,,,-99.99,538.239990,,2013-09-11 21:00:00,
2013-09-11 16:44:00,79.0,62.0,-100.00,SW,225,9.0,-999.0,57,-99.99,,,-99.99,538.239990,,2013-09-11 21:44:00,
2013-09-11 16:54:00,79.0,62.0,-100.00,SW,225,9.0,-999.0,57,-99.99,,,-99.99,538.239990,,2013-09-11 21:54:00,
2013-09-11 17:00:00,79.0,62.0,-100.00,SW,225,8.0,-999.0,56,-99.99,,,-99.99,414.119995,,2013-09-11 22:00:00,
2013-09-11 17:43:00,79.0,62.0,-100.00,SW,225,8.0,-999.0,56,-99.99,,,-99.99,414.119995,,2013-09-11 22:43:00,
2013-09-11 17:54:00,79.0,62.0,-100.00,SW,225,8.0,-999.0,56,-99.99,,,-99.99,414.119995,,2013-09-11 22:54:00,
2013-09-11 18:00:00,78.0,62.0,-100.00,SW,225,7.0,-999.0,57,-99.99,,,-99.99,178.639999,,2013-09-11 23:00:00,
2013-09-11 18:42:00,78.0,62.0,-100.00,SW,225,7.0,-999.0,57,-99.99,,,-99.99,178.639999,,2013-09-11 23:42:00,
2013-09-11 18:53:00,78.0,62.0,-100.00,SW,225,7.0,-999.0,57,-99.99,,,-99.99,178.639999,,2013-09-11 23:53:00,
2013-09-11 19:00:00,75.0,62.0,-100.00,SW,225,4.0,-999.0,63,-99.99,,,-99.99,54.520000,,2013-09-12 00:00:00,
2013-09-11 19:42:00,75.0,62.0,-100.00,SW,225,4.0,-999.0,63,-99.99,,,-99.99,54.520000,,2013-09-12 00:42:00,
2013-09-11 19:52:00,75.0,62.0,-100.00,SW,225,4.0,-999.0,63,-99.99,,,-99.99,54.520000,,2013-09-12 00:52:00,
2013-09-11 20:00:00,72.0,62.0,-100.00,SW,225,3.0,-999.0,70,-99.99,,,-99.99,1.160000,,2013-09-12 01:00:00,
2013-09-11 20:42:00,72.0,62.0,-100.00,SW,225,3.0,-999.0,70,-99.99,,,-99.99,1.160000,,2013-09-12 01:42:00,
2013-09-11 20:52:00,72.0,62.0,-100.00,SW,225,3.0,-999.0,70,-99.99,,,-99.99,1.160000,,2013-09-12 01:52:00,
2013-09-11 21:00:00,72.0,61.0,-100.00,WNW,292,5.0,-999.0,69,-99.99,,,-99.99,0.000000,,2013-09-12 02:00:00,
2013-09-11 21:52:00,72.0,61.0,-100.00,WNW,292,5.0,-999.0,69,-99.99,,,-99.99,0.000000,,2013-09-12 02:52:00,
2013-09-11 22:00:00,70.0,58.0,-100.00,NNW,337,5.0,-999.0,66,-99.99,,,-99.99,0.000000,,2013-09-12 03:00:00,
2013-09-11 22:45:00,70.0,58.0,-100.00,NNW,337,5.0,-999.0,66,-99.99,,,-99.99,0.000000,,2013-09-12 03:45:00,
2013-09-11 22:55:00,70.0,58.0,-100.00,NNW,337,5.0,-999.0,66,-99.99,,,-99.99,0.000000,,2013-09-12 03:55:00,
2013-09-11 23:00:00,67.0,57.0,-100.00,NNW,337,4.0,-999.0,70,-99.99,,,-99.99,0.000000,,2013-09-12 04:00:00,
2013-09-11 23:44:00,67.0,57.0,-100.00,NNW,337,4.0,-999.0,70,-99.99,,,-99.99,0.000000,,2013-09-12 04:44:00,
2013-09-11 23:54:00,67.0,57.0,-100.00,NNW,337,4.0,-999.0,70,-99.99,,,-99.99,0.000000,,2013-09-12 04:54:00,